Weather reports worldwide

Advertisment
Sodankyla, Finland (2836): temperature & dewpoint: 29.06.2020 12:00:00 - 05.07.2020 12:00:00 (EEST)Sodankyla, Finland (2836): wind speed & gusts: 29.06.2020 12:00:00 - 05.07.2020 12:00:00 (EEST)Sodankyla, Finland (2836): wind direction: 29.06.2020 12:00:00 - 05.07.2020 12:00:00 (EEST)Sodankyla, Finland (2836): reduced air pressure: 29.06.2020 12:00:00 - 05.07.2020 12:00:00 (EEST)Sodankyla, Finland (2836): visibility: 29.06.2020 12:00:00 - 05.07.2020 12:00:00 (EEST)Sodankyla, Finland (2836): precipitation: 29.06.2020 12:00:00 - 05.07.2020 12:00:00 (EEST)
Date & Time tt [°C] td [°C] ff [km/h] ff [kn] fx [km/h] fx [kn] dd ppp [hPa] vv [km] rr [mm]
05.07.2020 12:00:00 14,9 7,3 7 4 27 15 SW 992,5 41 0,0
05.07.2020 11:00:00 13,9 8,0 10 5 24 13 SSW 992,7 42 0,0
05.07.2020 10:00:00 12,9 8,7 11 6 33 18 SSW 992,8 50 0,0
05.07.2020 09:00:00 12,0 9,7 16 9 27 14 SW 992,7 50 0,0
05.07.2020 08:00:00 11,3 10,8 7 4 13 7 S 992,6 50 0,0
05.07.2020 07:00:00 10,6 10,1 5 3 17 9 E 993,0 50 1,1
05.07.2020 06:00:00 10,2 10,0 6 3 20 11 SE 993,9 2,9 2,2
05.07.2020 05:00:00 10,1 9,8 12 6 22 12 ENE 994,4 13 2,9
05.07.2020 04:00:00 10,0 9,7 8 5 15 8 NE 995,6 7 2,5
05.07.2020 03:00:00 10,2 9,8 7 4 14 8 NE 996,5 9 2,3
05.07.2020 02:00:00 10,5 10,1 6 4 15 8 ENE 997,5 10 1,5
05.07.2020 01:00:00 10,6 9,8 8 5 12 6 E 998,3 17 1,0
05.07.2020 00:00:00 11,3 9,5 8 4 15 8 E 998,7 21 0,2
04.07.2020 23:00:00 12,2 8,8 7 4 14 8 SE 999,2 50 0,0
04.07.2020 22:00:00 12,7 9,2 5 3 10 5 E 999,2 50 0,0
04.07.2020 21:00:00 12,7 9,5 4 2 20 11 SE 999,8 50 0,0
04.07.2020 20:00:00 12,7 9,3 15 8 48 26 S 1000,7 31 0,0
04.07.2020 19:00:00 16,5 6,1 9 5 22 12 S 1000,3 50 0,0
04.07.2020 18:00:00 17,3 7,1 14 8 29 16 SSW 1000,6 49 0,0
04.07.2020 17:00:00 16,3 7,1 11 6 35 19 SSW 1001,1 49 0,0
04.07.2020 16:00:00 15,0 6,7 17 9 33 18 SSW 1001,3 36 0,0
04.07.2020 15:00:00 13,9 7,4 21 11 39 21 SSW 1001,5 50 0,0
04.07.2020 14:00:00 12,8 7,6 22 12 40 21 SSW 1001,5 50 0,0
04.07.2020 13:00:00 12,0 8,3 18 10 40 21 SSW 1001,4 49 0,0
04.07.2020 12:00:00 10,7 8,7 23 12 87 47 SSW 1001,4 38 0,0
04.07.2020 11:00:00 10,4 9,3 19 10 32 18 S 1000,9 12 0,0
04.07.2020 10:00:00 10,8 9,1 14 8 30 16 SSW 1000,5 50 0,0
04.07.2020 09:00:00 9,1 8,5 16 8 28 15 S 1000,2 41 0,1
04.07.2020 08:00:00 8,5 7,7 13 7 36 19 S 1000,1 5 0,0
04.07.2020 07:00:00 9,3 6,8 13 7 29 15 S 1000,0 50 0,0
04.07.2020 06:00:00 9,0 7,1 13 7 29 16 S 1000,1 50 0,0
04.07.2020 05:00:00 8,7 6,9 16 9 31 17 S 1000,3 27 0,0
04.07.2020 04:00:00 8,6 8,0 14 7 26 14 SSE 1000,6 50 0,0
04.07.2020 03:00:00 8,5 8,1 9 5 23 12 SE 1001,0 28 0,0
04.07.2020 02:00:00 8,3 7,5 11 6 21 11 SE 1001,4 50 0,0
04.07.2020 01:00:00 8,6 7,6 12 7 23 12 S 1001,6 50 0,0
04.07.2020 00:00:00 9,6 8,7 11 6 23 13 S 1001,4 50 0,0
03.07.2020 23:00:00 9,8 9,2 10 6 17 9 SE 1001,4 50 0,0
03.07.2020 22:00:00 10,1 9,8 7 4 17 9 SE 1001,3 32 0,4
03.07.2020 21:00:00 10,1 9,7 8 5 19 10 SE 1001,4 17 0,5
03.07.2020 20:00:00 9,9 9,4 6 3 21 11 ESE 1001,6 48 0,6
03.07.2020 19:00:00 9,9 9,0 11 6 26 14 E 1002,0 7 0,4
03.07.2020 18:00:00 10,8 7,9 14 7 36 19 E 1002,4 27 0,0
03.07.2020 17:00:00 12,2 8,3 12 7 29 15 ESE 1002,5 25 0,0
03.07.2020 16:00:00 13,6 5,8 10 5 24 13 ESE 1002,4 45 0,0
03.07.2020 15:00:00 14,1 4,3 10 5 24 13 E 1002,6 50 0,0
03.07.2020 14:00:00 14,1 5,3 12 6 24 13 E 1002,9 50 0,0
03.07.2020 13:00:00 14,1 5,7 13 7 22 12 ESE 1003,2 50 0,0
03.07.2020 12:00:00 14,2 6,3 10 5 22 12 SE 1003,5 50 0,0
03.07.2020 11:00:00 13,8 7,0 14 8 23 13 SE 1003,8 48 0,0
03.07.2020 10:00:00 14,0 6,9 10 5 18 10 ESE 1003,7 50 0,0
03.07.2020 09:00:00 14,2 7,1 9 5 18 10 E 1003,7 47 0,0
03.07.2020 08:00:00 11,9 8,1 5 3 9 5 ESE 1004,1 47 0,0
03.07.2020 07:00:00 11,1 7,6 5 3 12 6 S 1004,2 50 0,0
03.07.2020 06:00:00 10,0 7,7 3 2 11 6 S 1004,3 50 0,0
03.07.2020 05:00:00 6,7 6,0 3 2 4 2 SSE 1004,3 50 0,0
03.07.2020 04:00:00 4,4 4,0 2 1 7 4 ENE 1004,4 50 0,0
03.07.2020 03:00:00 4,6 4,4 2 1 6 3 NW 1004,1 0,4 0,0
03.07.2020 02:00:00 5,3 4,3 2 1 5 3 ENE 1003,8 50 0,0
03.07.2020 01:00:00 6,9 5,9 4 2 7 4 SSE 1003,3 50 0,0
03.07.2020 00:00:00 8,2 6,7 4 2 6 3 SE 1002,7 50 0,0
02.07.2020 23:00:00 10,4 7,4 2 1 9 5 NE 1002,4 50 0,0
02.07.2020 22:00:00 11,9 6,9 6 4 14 8 N 1001,8 50 0,0
02.07.2020 21:00:00 11,9 7,2 10 5 22 12 SSW 1001,0 50 0,0
02.07.2020 20:00:00 13,4 7,7 6 4 14 8 SSW 1000,6 50 0,0
02.07.2020 19:00:00 11,4 7,8 11 6 37 20 SSW 1000,6 50 0,0
02.07.2020 18:00:00 14,2 5,0 11 6 22 12 SSW 999,6 50 0,0
02.07.2020 17:00:00 14,2 5,4 10 5 33 18 W 999,1 44 0,0
02.07.2020 16:00:00 15,2 4,7 14 8 31 17 W 998,1 48 0,0
02.07.2020 15:00:00 13,0 7,0 17 9 47 26 WSW 998,0 25 0,0
02.07.2020 14:00:00 15,1 3,1 18 10 33 18 W 996,8 42 0,0
02.07.2020 13:00:00 14,9 3,6 16 9 32 17 W 996,1 50 0,0
02.07.2020 12:00:00 14,0 3,8 17 9 35 19 WSW 995,4 49 0,0
02.07.2020 11:00:00 14,2 5,5 16 8 30 16 WSW 994,6 48 0,0
02.07.2020 10:00:00 12,7 6,2 11 6 29 15 WSW 993,9 50 0,0
02.07.2020 09:00:00 12,2 7,1 9 5 22 12 SW 993,3 50 0,0
02.07.2020 08:00:00 10,3 7,7 6 3 14 8 SW 993,0 50 0,0
02.07.2020 07:00:00 9,8 7,0 5 3 15 8 SSW 992,6 45 0,0
02.07.2020 06:00:00 9,3 7,7 5 3 13 7 WSW 992,2 50 0,0
02.07.2020 05:00:00 9,0 8,0 5 3 19 10 SSW 991,8 50 0,0
02.07.2020 04:00:00 7,8 7,5 8 5 16 9 SW 991,4 50 0,0
02.07.2020 03:00:00 8,0 7,7 8 5 15 8 SSW 991,1 50 0,0
02.07.2020 02:00:00 8,4 7,8 9 5 23 12 SW 990,8 50 0,0
02.07.2020 01:00:00 9,2 8,6 13 7 22 12 SW 990,1 50 0,0
02.07.2020 00:00:00 9,6 9,0 8 4 18 10 SW 989,6 50 0,0
01.07.2020 23:00:00 9,3 8,9 6 3 13 7 SSW 989,0 27 0,0
01.07.2020 22:00:00 9,3 8,4 5 3 27 15 WSW 988,5 50 0,0
01.07.2020 21:00:00 9,7 8,2 15 8 28 15 WSW 988,0 50 0,0
01.07.2020 20:00:00 9,6 8,4 9 5 29 16 WSW 987,2 50 0,0
01.07.2020 19:00:00 9,4 8,2 14 8 30 16 WSW 986,5 50 0,1
01.07.2020 18:00:00 9,4 8,9 13 7 34 19 WSW 985,5 42 0,1
01.07.2020 17:00:00 9,4 8,9 14 7 31 17 WSW 984,5 7 0,1
01.07.2020 16:00:00 9,3 8,7 15 8 32 18 W 983,5 20 0,2
01.07.2020 15:00:00 9,1 8,7 14 8 33 18 WSW 982,4 11 0,0
01.07.2020 14:00:00 9,3 8,9 16 9 36 19 W 981,0 6 0,4
01.07.2020 13:00:00 9,9 9,5 16 9 29 16 W 979,5 3,3 0,8
01.07.2020 12:00:00 10,6 10,2 13 7 24 13 W 978,2 5 0,5
01.07.2020 11:00:00 11,0 10,7 10 6 25 13 WNW 977,4 4,2 0,4
01.07.2020 10:00:00 11,1 10,9 11 6 23 12 NW 977,0 4,0 0,9
01.07.2020 09:00:00 11,0 10,8 11 6 21 11 NNW 976,9 3,9 1,6
01.07.2020 08:00:00 11,3 11,0 10 6 28 15 N 977,3 9 1,9
01.07.2020 07:00:00 11,2 10,9 13 7 27 15 N 977,9 7 1,7
01.07.2020 06:00:00 11,0 10,7 12 6 29 16 N 978,8 8 1,3
01.07.2020 05:00:00 11,0 10,7 15 8 26 14 N 979,7 10 1,4
01.07.2020 04:00:00 11,3 10,9 13 7 23 12 NNE 981,0 10 2,1
01.07.2020 03:00:00 11,7 11,2 10 6 20 11 NNE 982,3 14 0,8
01.07.2020 02:00:00 12,1 11,3 10 5 21 12 ENE 983,3 24 0,0
01.07.2020 01:00:00 13,0 12,1 9 5 20 11 ENE 984,5 23 0,0
01.07.2020 00:00:00 13,7 11,9 11 6 23 12 ESE 985,6 36 0,0
30.06.2020 23:00:00 14,4 12,3 12 6 21 11 E 986,4 50 0,0
30.06.2020 22:00:00 15,1 11,9 12 7 26 14 SE 986,9 50 0,0
30.06.2020 21:00:00 16,3 12,2 11 6 24 13 SE 987,4 50 0,0
30.06.2020 20:00:00 16,7 12,3 11 6 28 15 SE 988,1 50 0,0
30.06.2020 19:00:00 17,5 12,5 14 8 26 14 SE 988,5 50 0,0
30.06.2020 18:00:00 18,0 11,8 12 6 27 14 SSE 988,9 48 0,0
30.06.2020 17:00:00 18,7 11,9 14 7 32 17 S 989,3 45 0,0
30.06.2020 16:00:00 18,1 12,1 16 8 43 23 SSE 989,8 39 0,0
30.06.2020 15:00:00 18,1 11,4 23 12 37 20 S 990,1 37 0,0
30.06.2020 14:00:00 17,3 12,9 17 9 38 21 S 990,5 46 0,0
30.06.2020 13:00:00 16,3 13,3 17 9 40 22 S 991,0 44 0,0
30.06.2020 12:00:00 15,7 13,2 23 13 40 22 S 991,4 44 0,0
30.06.2020 11:00:00 14,9 13,3 22 12 41 22 S 991,5 46 0,0
30.06.2020 10:00:00 14,6 13,3 18 10 35 19 S 991,6 47 0,0
30.06.2020 09:00:00 14,0 13,2 16 9 33 18 S 992,4 41 0,0
30.06.2020 08:00:00 13,2 12,9 18 10 43 23 S 993,1 10 0,1
30.06.2020 07:00:00 13,1 12,8 22 12 43 23 S 993,4 7 1,5
30.06.2020 06:00:00 13,4 12,9 22 12 45 24 S 994,1 7 2,3
30.06.2020 05:00:00 13,4 13,1 16 8 27 14 S 995,2 9 0,9
30.06.2020 04:00:00 13,8 13,4 13 7 32 17 SSW 996,4 9 2,1
30.06.2020 03:00:00 14,3 14,0 11 6 20 11 S 997,3 9 0,8
30.06.2020 02:00:00 14,1 13,9 12 7 23 13 S 998,3 13 0,7
30.06.2020 01:00:00 13,9 13,6 14 8 27 15 S 999,3 5 4,5
30.06.2020 00:00:00 14,1 13,1 14 7 26 14 SSE 1000,0 18 0,0
29.06.2020 23:00:00 14,1 13,0 13 7 24 13 SSE 1000,7 39 0,0
29.06.2020 22:00:00 14,2 13,0 9 5 28 15 S 1002,1 29 1,6
29.06.2020 21:00:00 17,7 10,2 13 7 23 13 S 1002,6 50 0,0
29.06.2020 20:00:00 18,8 10,0 12 6 26 14 S 1003,1 50 0,0
29.06.2020 19:00:00 19,0 9,4 13 7 36 19 SSW 1004,1 50 0,0
29.06.2020 18:00:00 21,3 6,5 15 8 35 19 SSW 1004,3 50 0,0
29.06.2020 17:00:00 20,8 6,2 15 8 33 18 SSW 1005,2 50 0,0
29.06.2020 16:00:00 22,4 5,8 20 11 32 17 SSW 1005,8 43 0,0
29.06.2020 15:00:00 21,6 4,7 11 6 35 19 SW 1006,7 50 0,0
29.06.2020 14:00:00 21,1 4,5 12 7 29 16 SSW 1007,5 45 0,0
29.06.2020 13:00:00 20,7 4,5 14 7 29 16 SW 1008,4 42 0,0
29.06.2020 12:00:00 20,3 3,7 14 8 24 13 SSW 1009,0 46 0,0

tt = temperature
td = dewpoint
ff = wind speed
fx = gusts
dd = wind direction
ppp = reduced air pressure
vv = visibility
rr = precipitation

Next stations